Time,TemperatureF,DewpointF,PressureIn,WindDirection,WindDirectionDegrees,WindSpeedMPH,WindSpeedGustMPH,Humidity,HourlyPrecipIn,Conditions,Clouds,dailyrainin,SoftwareType,DateUTC
2013-11-03 00:00:00,35.3,33.7,18.30,SSE,165,3.0,13.0,94,0.00,,,0.07,Wunderground v.1.15,2013-11-03 04:00:00,
2013-11-03 00:05:00,35.1,33.5,18.30,South,186,3.0,13.0,94,0.00,,,0.07,Wunderground v.1.15,2013-11-03 04:05:00,
2013-11-03 00:10:00,35.1,33.5,18.30,SE,139,3.0,3.0,94,0.00,,,0.07,Wunderground v.1.15,2013-11-03 04:10:00,
2013-11-03 00:15:00,35.1,33.5,18.30,South,190,3.0,10.0,94,0.00,,,0.07,Wunderground v.1.15,2013-11-03 04:15:00,
2013-11-03 00:20:00,34.9,33.3,18.30,SSE,168,4.0,4.0,94,0.00,,,0.07,Wunderground v.1.15,2013-11-03 04:20:00,
2013-11-03 00:25:00,34.8,33.2,18.30,SSE,161,5.0,5.0,94,0.00,,,0.07,Wunderground v.1.15,2013-11-03 04:25:00,
2013-11-03 00:30:00,34.8,33.2,18.30,South,178,3.0,3.0,94,0.00,,,0.07,Wunderground v.1.15,2013-11-03 04:30:00,
2013-11-03 00:35:00,34.8,33.2,18.30,SSW,195,2.0,13.0,94,0.00,,,0.07,Wunderground v.1.15,2013-11-03 04:35:00,
2013-11-03 00:40:00,34.8,33.2,18.30,SSE,159,2.0,2.0,94,0.00,,,0.07,Wunderground v.1.15,2013-11-03 04:40:00,
2013-11-03 00:45:00,34.7,32.9,18.30,SE,139,3.0,3.0,93,0.00,,,0.07,Wunderground v.1.15,2013-11-03 04:45:00,
2013-11-03 00:50:00,34.4,32.6,18.30,South,169,3.0,3.0,93,0.00,,,0.07,Wunderground v.1.15,2013-11-03 04:50:00,
2013-11-03 00:55:00,34.4,32.6,18.30,SE,134,2.0,13.0,93,0.00,,,0.07,Wunderground v.1.15,2013-11-03 04:55:00,
2013-11-03 01:00:00,34.3,32.5,18.30,SE,135,2.0,14.0,93,0.00,,,0.07,Wunderground v.1.15,2013-11-03 05:00:00,
2013-11-03 01:10:00,34.3,32.5,18.30,SSE,167,3.0,14.0,93,0.00,,,0.07,Wunderground v.1.15,2013-11-03 05:10:00,
2013-11-03 01:15:00,34.3,32.5,18.30,SSE,166,2.0,14.0,93,0.00,,,0.07,Wunderground v.1.15,2013-11-03 05:15:00,
2013-11-03 01:25:00,34.4,32.6,18.30,ESE,123,2.0,14.0,93,0.00,,,0.07,Wunderground v.1.15,2013-11-03 05:25:00,
2013-11-03 01:30:00,34.4,32.6,18.30,SSE,168,2.0,14.0,93,0.00,,,0.07,Wunderground v.1.15,2013-11-03 05:30:00,
2013-11-03 01:35:00,34.4,32.6,18.30,South,186,2.0,14.0,93,0.00,,,0.07,Wunderground v.1.15,2013-11-03 05:35:00,
2013-11-03 01:40:00,34.3,32.2,18.30,South,184,3.0,14.0,92,0.00,,,0.07,Wunderground v.1.15,2013-11-03 05:40:00,
2013-11-03 01:45:00,34.3,32.2,18.30,SSE,155,3.0,14.0,92,0.00,,,0.07,Wunderground v.1.15,2013-11-03 05:45:00,
2013-11-03 01:50:00,34.4,32.3,18.30,SSW,193,3.0,3.0,92,0.00,,,0.00,Wunderground v.1.15,2013-11-03 05:50:00,
2013-11-03 01:00:00,34.3,32.2,18.30,South,185,3.0,3.0,92,0.00,,,0.00,Wunderground v.1.15,2013-11-03 06:00:00,
2013-11-03 01:10:00,34.3,32.2,18.30,SE,139,2.0,14.0,92,0.00,,,0.00,Wunderground v.1.15,2013-11-03 06:10:00,
2013-11-03 01:15:00,34.3,32.2,18.30,SSW,208,2.0,14.0,92,0.00,,,0.00,Wunderground v.1.15,2013-11-03 06:15:00,
2013-11-03 01:20:00,34.4,32.3,18.30,South,170,2.0,14.0,92,0.00,,,0.00,Wunderground v.1.15,2013-11-03 06:20:00,
2013-11-03 01:25:00,34.4,32.3,18.30,SSE,163,2.0,14.0,92,0.00,,,0.00,Wunderground v.1.15,2013-11-03 06:25:00,
2013-11-03 01:30:00,34.3,32.2,18.30,SE,144,2.0,2.0,92,0.00,,,0.00,Wunderground v.1.15,2013-11-03 06:30:00,
2013-11-03 01:35:00,34.3,32.2,18.30,South,188,2.0,14.0,92,0.00,,,0.00,Wunderground v.1.15,2013-11-03 06:35:00,
2013-11-03 01:40:00,34.4,32.3,18.30,South,169,1.0,1.0,92,0.00,,,0.00,Wunderground v.1.15,2013-11-03 06:40:00,
2013-11-03 01:45:00,34.4,32.3,18.30,SE,130,1.0,14.0,92,0.00,,,0.00,Wunderground v.1.15,2013-11-03 06:45:00,
2013-11-03 01:50:00,34.3,31.9,18.30,South,175,2.0,2.0,91,0.00,,,0.00,Wunderground v.1.15,2013-11-03 06:50:00,
2013-11-03 02:00:00,34.3,31.9,18.30,SE,129,2.0,2.0,91,0.00,,,0.00,Wunderground v.1.15,2013-11-03 07:00:00,
2013-11-03 02:10:00,34.3,31.9,18.30,South,176,2.0,2.0,91,0.00,,,0.00,Wunderground v.1.15,2013-11-03 07:10:00,
2013-11-03 02:15:00,34.2,31.8,18.30,South,189,2.0,11.0,91,0.00,,,0.00,Wunderground v.1.15,2013-11-03 07:15:00,
2013-11-03 02:20:00,34.1,31.7,18.30,South,188,2.0,2.0,91,0.00,,,0.00,Wunderground v.1.15,2013-11-03 07:20:00,
2013-11-03 02:25:00,34.0,31.6,18.30,South,190,2.0,11.0,91,0.00,,,0.00,Wunderground v.1.15,2013-11-03 07:25:00,
2013-11-03 02:35:00,34.1,31.7,18.30,South,180,1.0,11.0,91,0.00,,,0.00,Wunderground v.1.15,2013-11-03 07:35:00,
2013-11-03 02:40:00,33.9,31.6,18.30,South,188,3.0,3.0,91,0.00,,,0.00,Wunderground v.1.15,2013-11-03 07:40:00,
2013-11-03 02:45:00,33.7,31.4,18.30,South,186,4.0,5.0,91,0.00,,,0.00,Wunderground v.1.15,2013-11-03 07:45:00,
2013-11-03 02:50:00,33.7,31.4,18.30,SSW,193,4.0,4.0,91,0.00,,,0.00,Wunderground v.1.15,2013-11-03 07:50:00,
2013-11-03 02:55:00,33.6,31.3,18.30,South,188,4.0,11.0,91,0.00,,,0.00,Wunderground v.1.15,2013-11-03 07:55:00,
2013-11-03 03:00:00,33.5,30.9,18.30,South,188,4.0,4.0,90,0.00,,,0.00,Wunderground v.1.15,2013-11-03 08:00:00,
2013-11-03 03:10:00,33.5,30.9,18.30,South,182,2.0,2.0,90,0.00,,,0.00,Wunderground v.1.15,2013-11-03 08:10:00,
2013-11-03 03:15:00,33.5,31.2,18.30,South,191,1.0,11.0,91,0.00,,,0.00,Wunderground v.1.15,2013-11-03 08:15:00,
2013-11-03 03:20:00,33.4,30.8,18.30,SSW,192,2.0,2.0,90,0.00,,,0.00,Wunderground v.1.15,2013-11-03 08:20:00,
2013-11-03 03:25:00,33.4,30.8,18.30,South,171,3.0,3.0,90,0.00,,,0.00,Wunderground v.1.15,2013-11-03 08:25:00,
2013-11-03 03:30:00,33.3,30.7,18.30,SSW,192,3.0,3.0,90,0.00,,,0.00,Wunderground v.1.15,2013-11-03 08:30:00,
2013-11-03 03:40:00,32.9,30.3,18.30,South,169,5.0,5.0,90,0.00,,,0.00,Wunderground v.1.15,2013-11-03 08:40:00,
2013-11-03 03:45:00,32.9,30.3,18.30,SSW,195,5.0,11.0,90,0.00,,,0.00,Wunderground v.1.15,2013-11-03 08:45:00,
2013-11-03 03:50:00,32.8,30.5,18.30,South,179,5.0,11.0,91,0.00,,,0.00,Wunderground v.1.15,2013-11-03 08:50:00,
2013-11-03 03:55:00,32.7,30.4,18.30,SSW,203,5.0,11.0,91,0.00,,,0.00,Wunderground v.1.15,2013-11-03 08:55:00,
2013-11-03 04:00:00,32.7,30.4,18.30,SSW,197,4.0,10.0,91,0.00,,,0.00,Wunderground v.1.15,2013-11-03 09:00:00,
2013-11-03 04:10:00,32.5,30.2,18.30,South,177,4.0,4.0,91,0.00,,,0.00,Wunderground v.1.15,2013-11-03 09:10:00,
2013-11-03 04:15:00,32.6,30.3,18.30,South,186,3.0,10.0,91,0.00,,,0.00,Wunderground v.1.15,2013-11-03 09:15:00,
2013-11-03 04:20:00,32.6,30.3,18.30,SSW,192,4.0,10.0,91,0.00,,,0.00,Wunderground v.1.15,2013-11-03 09:20:00,
2013-11-03 04:25:00,32.6,30.3,18.30,South,183,4.0,10.0,91,0.00,,,0.00,Wunderground v.1.15,2013-11-03 09:25:00,
2013-11-03 04:30:00,32.6,30.3,18.30,SSW,195,3.0,10.0,91,0.00,,,0.00,Wunderground v.1.15,2013-11-03 09:30:00,
2013-11-03 04:35:00,32.5,30.2,18.30,SSW,194,3.0,10.0,91,0.00,,,0.00,Wunderground v.1.15,2013-11-03 09:35:00,
2013-11-03 04:45:00,32.5,30.2,18.30,South,189,3.0,10.0,91,0.00,,,0.00,Wunderground v.1.15,2013-11-03 09:45:00,
2013-11-03 04:50:00,32.6,30.3,18.30,SSW,197,3.0,3.0,91,0.00,,,0.00,Wunderground v.1.15,2013-11-03 09:50:00,
2013-11-03 04:55:00,32.6,30.3,18.30,SSE,161,1.0,10.0,91,0.00,,,0.00,Wunderground v.1.15,2013-11-03 09:55:00,
2013-11-03 05:00:00,32.7,30.4,18.30,SSE,157,1.0,1.0,91,0.00,,,0.00,Wunderground v.1.15,2013-11-03 10:00:00,
2013-11-03 05:10:00,32.8,30.5,18.30,SE,132,1.0,10.0,91,0.00,,,0.00,Wunderground v.1.15,2013-11-03 10:10:00,
2013-11-03 05:15:00,32.9,30.6,18.30,ESE,116,1.0,10.0,91,0.00,,,0.00,Wunderground v.1.15,2013-11-03 10:15:00,
2013-11-03 05:20:00,32.9,30.6,18.30,ESE,117,1.0,10.0,91,0.00,,,0.00,Wunderground v.1.15,2013-11-03 10:20:00,
2013-11-03 05:25:00,32.8,30.5,18.30,SE,134,1.0,10.0,91,0.00,,,0.00,Wunderground v.1.15,2013-11-03 10:25:00,
2013-11-03 05:35:00,32.6,30.0,18.30,SE,144,2.0,10.0,90,0.00,,,0.00,Wunderground v.1.15,2013-11-03 10:35:00,
2013-11-03 05:45:00,32.6,30.0,18.30,SE,124,2.0,10.0,90,0.00,,,0.00,Wunderground v.1.15,2013-11-03 10:45:00,
2013-11-03 05:50:00,32.6,30.0,18.30,ESE,120,1.0,10.0,90,0.00,,,0.00,Wunderground v.1.15,2013-11-03 10:50:00,
2013-11-03 05:55:00,32.5,29.9,18.30,SSW,195,1.0,10.0,90,0.00,,,0.00,Wunderground v.1.15,2013-11-03 10:55:00,
2013-11-03 06:00:00,32.4,29.8,18.30,SSE,149,1.0,1.0,90,0.00,,,0.00,Wunderground v.1.15,2013-11-03 11:00:00,
2013-11-03 06:10:00,32.2,29.3,18.30,SSE,149,1.0,9.0,89,0.00,,,0.00,Wunderground v.1.15,2013-11-03 11:10:00,
2013-11-03 06:15:00,31.9,29.0,18.30,South,186,2.0,9.0,89,0.00,,,0.00,Wunderground v.1.15,2013-11-03 11:15:00,
2013-11-03 06:20:00,31.7,28.8,18.30,SSW,194,3.0,9.0,89,0.00,,,0.00,Wunderground v.1.15,2013-11-03 11:20:00,
2013-11-03 06:25:00,31.4,28.5,18.30,South,190,4.0,9.0,89,0.00,,,0.00,Wunderground v.1.15,2013-11-03 11:25:00,
2013-11-03 06:30:00,31.2,28.3,18.30,SSW,193,4.0,4.0,89,0.00,,,0.00,Wunderground v.1.15,2013-11-03 11:30:00,
2013-11-03 06:35:00,31.1,28.2,18.30,SSW,193,4.0,8.0,89,0.00,,,0.00,Wunderground v.1.15,2013-11-03 11:35:00,
2013-11-03 06:40:00,31.1,28.2,18.30,South,187,3.0,3.0,89,0.00,,,0.00,Wunderground v.1.15,2013-11-03 11:40:00,
2013-11-03 06:50:00,31.2,28.6,18.30,South,189,1.0,1.0,90,0.00,,,0.00,Wunderground v.1.15,2013-11-03 11:50:00,
2013-11-03 06:55:00,31.2,28.3,18.30,South,186,1.0,9.0,89,0.00,,,0.00,Wunderground v.1.15,2013-11-03 11:55:00,
2013-11-03 07:00:00,31.2,28.3,18.30,SSE,149,1.0,1.0,89,0.00,,,0.00,Wunderground v.1.15,2013-11-03 12:00:00,
2013-11-03 07:10:00,31.1,28.2,18.30,SSE,165,1.0,11.0,89,0.00,,,0.00,Wunderground v.1.15,2013-11-03 12:10:00,
2013-11-03 07:15:00,31.2,28.3,18.30,SSE,165,1.0,11.0,89,0.00,,,0.00,Wunderground v.1.15,2013-11-03 12:15:00,
2013-11-03 07:20:00,31.2,28.3,18.30,SSE,165,1.0,1.0,89,0.00,,,0.00,Wunderground v.1.15,2013-11-03 12:20:00,
2013-11-03 07:30:00,31.2,28.3,18.30,SSE,165,0.0,11.0,89,0.00,,,0.00,Wunderground v.1.15,2013-11-03 12:30:00,
2013-11-03 07:35:00,31.2,28.3,18.30,SSE,165,0.0,11.0,89,0.00,,,0.00,Wunderground v.1.15,2013-11-03 12:35:00,
2013-11-03 07:40:00,31.2,28.3,18.30,SSE,165,0.0,11.0,89,0.00,,,0.00,Wunderground v.1.15,2013-11-03 12:40:00,
2013-11-03 07:50:00,31.2,28.3,18.30,SSE,165,0.0,11.0,89,0.00,,,0.00,Wunderground v.1.15,2013-11-03 12:50:00,
2013-11-03 08:05:00,31.2,28.3,18.30,SE,132,1.0,11.0,89,0.00,,,0.00,Wunderground v.1.15,2013-11-03 13:05:00,
2013-11-03 08:10:00,31.2,28.3,18.30,SE,132,1.0,11.0,89,0.00,,,0.00,Wunderground v.1.15,2013-11-03 13:10:00,
2013-11-03 08:20:00,31.2,28.3,18.30,SE,132,1.0,11.0,89,0.00,,,0.00,Wunderground v.1.15,2013-11-03 13:20:00,
2013-11-03 08:25:00,31.2,28.3,18.30,SE,132,1.0,11.0,89,0.00,,,0.00,Wunderground v.1.15,2013-11-03 13:25:00,
2013-11-03 08:30:00,31.6,28.7,18.30,SE,132,6.0,11.0,89,0.00,,,0.00,Wunderground v.1.15,2013-11-03 13:30:00,
2013-11-03 08:35:00,31.6,28.7,18.30,SE,132,6.0,11.0,89,0.00,,,0.00,Wunderground v.1.15,2013-11-03 13:35:00,
2013-11-03 08:45:00,31.6,28.7,18.30,SE,132,6.0,11.0,89,0.00,,,0.00,Wunderground v.1.15,2013-11-03 13:45:00,
2013-11-03 08:50:00,32.2,29.3,18.30,SE,144,0.0,11.0,89,0.00,,,0.00,Wunderground v.1.15,2013-11-03 13:50:00,
2013-11-03 09:05:00,32.2,29.3,18.30,SSE,149,0.0,11.0,89,0.00,,,0.00,Wunderground v.1.15,2013-11-03 14:05:00,
2013-11-03 09:15:00,32.2,29.3,18.30,SSE,149,0.0,11.0,89,0.00,,,0.00,Wunderground v.1.15,2013-11-03 14:15:00,
2013-11-03 09:25:00,32.2,29.3,18.30,SSE,159,6.0,11.0,89,0.00,,,0.00,Wunderground v.1.15,2013-11-03 14:25:00,
2013-11-03 09:35:00,32.2,29.3,18.30,SSE,159,6.0,11.0,89,0.00,,,0.00,Wunderground v.1.15,2013-11-03 14:35:00,
2013-11-03 09:45:00,32.2,29.3,18.30,SSE,159,6.0,11.0,89,0.00,,,0.00,Wunderground v.1.15,2013-11-03 14:45:00,
2013-11-03 09:55:00,32.2,29.3,18.30,SSE,159,6.0,11.0,89,0.00,,,0.00,Wunderground v.1.15,2013-11-03 14:55:00,
2013-11-03 10:10:00,32.2,29.3,18.30,SSE,159,6.0,11.0,89,0.00,,,0.00,Wunderground v.1.15,2013-11-03 15:10:00,
2013-11-03 10:40:00,32.2,29.3,18.30,SSE,159,6.0,11.0,89,0.00,,,0.00,Wunderground v.1.15,2013-11-03 15:40:00,
2013-11-03 14:55:00,33.8,26.4,18.30,South,187,3.0,11.0,74,0.00,,,0.00,Wunderground v.1.15,2013-11-03 19:55:00,
2013-11-03 15:05:00,33.9,26.8,18.30,South,176,2.0,2.0,75,0.00,,,0.00,Wunderground v.1.15,2013-11-03 20:05:00,
2013-11-03 15:10:00,34.0,26.9,18.30,SE,128,2.0,6.0,75,0.00,,,0.00,Wunderground v.1.15,2013-11-03 20:10:00,
2013-11-03 15:15:00,33.7,26.3,18.30,ESE,122,2.0,6.0,74,0.00,,,0.00,Wunderground v.1.15,2013-11-03 20:15:00,
2013-11-03 15:20:00,33.6,26.5,18.30,ESE,122,3.0,6.0,75,0.00,,,0.00,Wunderground v.1.15,2013-11-03 20:20:00,
2013-11-03 15:25:00,33.7,26.6,18.30,SE,139,3.0,3.0,75,0.00,,,0.00,Wunderground v.1.15,2013-11-03 20:25:00,
2013-11-03 15:30:00,33.7,26.6,18.30,South,172,1.0,6.0,75,0.00,,,0.00,Wunderground v.1.15,2013-11-03 20:30:00,
2013-11-03 15:35:00,33.6,26.5,18.30,ESE,118,1.0,6.0,75,0.00,,,0.00,Wunderground v.1.15,2013-11-03 20:35:00,
2013-11-03 15:45:00,33.5,25.4,18.30,SE,124,3.0,3.0,72,0.00,,,0.00,Wunderground v.1.15,2013-11-03 20:45:00,
2013-11-03 15:50:00,33.3,25.6,18.30,SSE,149,3.0,6.0,73,0.00,,,0.00,Wunderground v.1.15,2013-11-03 20:50:00,
2013-11-03 15:55:00,33.3,25.6,18.30,SE,139,3.0,8.0,73,0.00,,,0.00,Wunderground v.1.15,2013-11-03 20:55:00,
2013-11-03 16:00:00,33.2,25.5,18.30,ESE,123,3.0,3.0,73,0.00,,,0.00,Wunderground v.1.15,2013-11-03 21:00:00,
2013-11-03 16:10:00,33.0,25.0,18.30,SE,128,2.0,13.0,72,0.00,,,0.00,Wunderground v.1.15,2013-11-03 21:10:00,
2013-11-03 16:15:00,33.1,25.1,18.30,ESE,105,3.0,13.0,72,0.00,,,0.00,Wunderground v.1.15,2013-11-03 21:15:00,
2013-11-03 16:20:00,33.0,25.0,18.30,SE,126,4.0,13.0,72,0.00,,,0.00,Wunderground v.1.15,2013-11-03 21:20:00,
2013-11-03 16:25:00,32.9,24.9,18.30,SE,130,5.0,13.0,72,0.00,,,0.00,Wunderground v.1.15,2013-11-03 21:25:00,
2013-11-03 16:30:00,33.0,25.3,18.30,SSE,149,3.0,3.0,73,0.00,,,0.00,Wunderground v.1.15,2013-11-03 21:30:00,
2013-11-03 16:35:00,32.9,24.9,18.30,SE,144,2.0,13.0,72,0.00,,,0.00,Wunderground v.1.15,2013-11-03 21:35:00,
2013-11-03 16:40:00,32.9,24.9,18.30,ESE,106,2.0,13.0,72,0.00,,,0.00,Wunderground v.1.15,2013-11-03 21:40:00,
2013-11-03 16:50:00,32.8,24.8,18.30,SE,128,3.0,3.0,72,0.00,,,0.00,Wunderground v.1.15,2013-11-03 21:50:00,
2013-11-03 16:55:00,32.7,24.3,18.30,ESE,117,3.0,13.0,71,0.00,,,0.00,Wunderground v.1.15,2013-11-03 21:55:00,
2013-11-03 17:00:00,32.6,24.2,18.30,ESE,122,3.0,13.0,71,0.00,,,0.00,Wunderground v.1.15,2013-11-03 22:00:00,
2013-11-03 17:10:00,32.6,24.6,18.30,SE,128,2.0,13.0,72,0.00,,,0.00,Wunderground v.1.15,2013-11-03 22:10:00,
2013-11-03 17:20:00,32.5,24.1,18.30,SE,128,2.0,2.0,71,0.00,,,0.00,Wunderground v.1.15,2013-11-03 22:20:00,
2013-11-03 17:25:00,32.3,23.9,18.30,South,183,1.0,13.0,71,0.00,,,0.00,Wunderground v.1.15,2013-11-03 22:25:00,
2013-11-03 17:30:00,32.1,23.8,18.30,SSE,157,1.0,13.0,71,0.00,,,0.00,Wunderground v.1.15,2013-11-03 22:30:00,
2013-11-03 17:35:00,32.1,23.4,18.30,East,86,1.0,13.0,70,0.00,,,0.00,Wunderground v.1.15,2013-11-03 22:35:00,
2013-11-03 17:40:00,32.2,23.5,18.30,East,99,2.0,13.0,70,0.00,,,0.00,Wunderground v.1.15,2013-11-03 22:40:00,
2013-11-03 17:50:00,32.3,24.3,18.30,ESE,119,2.0,2.0,72,0.00,,,0.00,Wunderground v.1.15,2013-11-03 22:50:00,
2013-11-03 17:55:00,32.2,24.5,18.30,ESE,120,1.0,13.0,73,0.00,,,0.00,Wunderground v.1.15,2013-11-03 22:55:00,
2013-11-03 18:00:00,32.2,24.5,18.30,SE,124,1.0,8.0,73,0.00,,,0.00,Wunderground v.1.15,2013-11-03 23:00:00,
2013-11-03 18:10:00,32.1,24.1,18.30,ESE,107,1.0,1.0,72,0.00,,,0.00,Wunderground v.1.15,2013-11-03 23:10:00,
2013-11-03 18:15:00,32.1,24.1,18.30,ESE,111,1.0,8.0,72,0.00,,,0.00,Wunderground v.1.15,2013-11-03 23:15:00,
2013-11-03 18:20:00,32.0,24.0,18.30,ESE,115,0.0,8.0,72,0.00,,,0.00,Wunderground v.1.15,2013-11-03 23:20:00,
2013-11-03 18:25:00,31.9,23.9,18.30,ESE,106,1.0,8.0,72,0.00,,,0.00,Wunderground v.1.15,2013-11-03 23:25:00,
2013-11-03 18:30:00,31.7,24.0,18.30,ESE,107,1.0,1.0,73,0.00,,,0.00,Wunderground v.1.15,2013-11-03 23:30:00,
2013-11-03 18:35:00,31.5,24.5,18.30,ESE,109,0.0,8.0,75,0.00,,,0.00,Wunderground v.1.15,2013-11-03 23:35:00,
2013-11-03 18:40:00,31.2,24.5,18.30,ESE,109,0.0,8.0,76,0.00,,,0.00,Wunderground v.1.15,2013-11-03 23:40:00,
2013-11-03 18:45:00,30.9,24.5,18.30,ESE,109,0.0,8.0,77,0.00,,,0.00,Wunderground v.1.15,2013-11-03 23:45:00,
2013-11-03 18:50:00,30.7,24.7,18.30,ESE,109,0.0,8.0,78,0.00,,,0.00,Wunderground v.1.15,2013-11-03 23:50:00,
2013-11-03 19:00:00,30.6,24.6,18.30,ESE,109,0.0,7.0,78,0.00,,,0.00,Wunderground v.1.15,2013-11-04 00:00:00,
2013-11-03 19:10:00,30.5,24.5,18.30,ESE,114,0.0,7.0,78,0.00,,,0.00,Wunderground v.1.15,2013-11-04 00:10:00,
2013-11-03 19:15:00,30.6,24.6,18.30,ESE,114,0.0,7.0,78,0.00,,,0.00,Wunderground v.1.15,2013-11-04 00:15:00,
2013-11-03 19:20:00,30.6,24.6,18.30,ESE,114,0.0,7.0,78,0.00,,,0.00,Wunderground v.1.15,2013-11-04 00:20:00,
2013-11-03 19:25:00,30.5,24.5,18.30,ESE,114,0.0,7.0,78,0.00,,,0.00,Wunderground v.1.15,2013-11-04 00:25:00,
2013-11-03 19:30:00,30.3,24.6,18.30,ESE,114,0.0,7.0,79,0.00,,,0.00,Wunderground v.1.15,2013-11-04 00:30:00,
2013-11-03 19:35:00,30.2,24.5,18.30,ESE,114,0.0,7.0,79,0.00,,,0.00,Wunderground v.1.15,2013-11-04 00:35:00,
2013-11-03 19:40:00,30.1,24.7,18.30,ESE,114,0.0,7.0,80,0.00,,,0.00,Wunderground v.1.15,2013-11-04 00:40:00,
2013-11-03 19:45:00,29.9,24.5,18.30,ESE,114,0.0,7.0,80,0.00,,,0.00,Wunderground v.1.15,2013-11-04 00:45:00,
2013-11-03 19:50:00,29.9,24.5,18.30,ESE,114,0.0,7.0,80,0.00,,,0.00,Wunderground v.1.15,2013-11-04 00:50:00,
2013-11-03 19:55:00,29.7,24.6,18.30,ESE,114,0.0,7.0,81,0.00,,,0.00,Wunderground v.1.15,2013-11-04 00:55:00,
2013-11-03 20:00:00,29.3,24.2,18.30,ESE,115,0.0,0.0,81,0.00,,,0.00,Wunderground v.1.15,2013-11-04 01:00:00,
2013-11-03 20:10:00,29.0,24.2,18.30,South,188,0.0,4.0,82,0.00,,,0.00,Wunderground v.1.15,2013-11-04 01:10:00,
2013-11-03 20:15:00,29.4,24.6,18.30,SSW,193,2.0,4.0,82,0.00,,,0.00,Wunderground v.1.15,2013-11-04 01:15:00,
2013-11-03 20:20:00,29.6,24.5,18.30,SSW,195,3.0,3.0,81,0.00,,,0.00,Wunderground v.1.15,2013-11-04 01:20:00,
2013-11-03 20:25:00,29.6,24.2,18.30,SSW,195,2.0,3.0,80,0.00,,,0.00,Wunderground v.1.15,2013-11-04 01:25:00,
2013-11-03 20:30:00,29.6,24.2,18.30,SSW,195,2.0,2.0,80,0.00,,,0.00,Wunderground v.1.15,2013-11-04 01:30:00,
2013-11-03 20:40:00,29.4,23.7,18.30,SSW,197,1.0,3.0,79,0.00,,,0.00,Wunderground v.1.15,2013-11-04 01:40:00,
2013-11-03 20:45:00,29.3,23.6,18.30,SSW,197,2.0,3.0,79,0.00,,,0.00,Wunderground v.1.15,2013-11-04 01:45:00,
2013-11-03 20:50:00,29.1,23.4,18.30,SSW,197,1.0,1.0,79,0.00,,,0.00,Wunderground v.1.15,2013-11-04 01:50:00,
2013-11-03 20:55:00,28.7,23.0,18.30,SSW,197,0.0,1.0,79,0.00,,,0.00,Wunderground v.1.15,2013-11-04 01:55:00,
2013-11-03 21:00:00,28.4,23.0,18.30,SSW,197,0.0,5.0,80,0.00,,,0.00,Wunderground v.1.15,2013-11-04 02:00:00,
2013-11-03 21:10:00,28.1,23.0,18.30,SSW,197,0.0,5.0,81,0.00,,,0.00,Wunderground v.1.15,2013-11-04 02:10:00,
2013-11-03 21:15:00,28.3,23.2,18.30,SSW,194,0.0,5.0,81,0.00,,,0.00,Wunderground v.1.15,2013-11-04 02:15:00,
2013-11-03 21:20:00,28.3,22.9,18.30,SSW,194,1.0,5.0,80,0.00,,,0.00,Wunderground v.1.15,2013-11-04 02:20:00,
2013-11-03 21:25:00,28.4,23.0,18.30,SSW,194,1.0,5.0,80,0.00,,,0.00,Wunderground v.1.15,2013-11-04 02:25:00,
2013-11-03 21:30:00,28.3,22.6,18.30,SSW,194,1.0,1.0,79,0.00,,,0.00,Wunderground v.1.15,2013-11-04 02:30:00,
2013-11-03 21:35:00,28.1,22.4,18.30,SSW,194,0.0,5.0,79,0.00,,,0.00,Wunderground v.1.15,2013-11-04 02:35:00,
2013-11-03 21:45:00,27.8,22.4,18.30,SSW,194,0.0,5.0,80,0.00,,,0.00,Wunderground v.1.15,2013-11-04 02:45:00,
2013-11-03 21:50:00,27.8,22.4,18.30,SSW,194,0.0,5.0,80,0.00,,,0.00,Wunderground v.1.15,2013-11-04 02:50:00,
2013-11-03 21:55:00,27.9,22.5,18.30,SSW,194,0.0,5.0,80,0.00,,,0.00,Wunderground v.1.15,2013-11-04 02:55:00,
2013-11-03 22:00:00,27.7,22.3,18.30,SSW,194,0.0,4.0,80,0.00,,,0.00,Wunderground v.1.15,2013-11-04 03:00:00,
2013-11-03 22:10:00,27.5,22.1,18.30,SSW,194,0.0,4.0,80,0.00,,,0.00,Wunderground v.1.15,2013-11-04 03:10:00,
2013-11-03 22:15:00,27.2,21.8,18.30,SSW,194,0.0,4.0,80,0.00,,,0.00,Wunderground v.1.15,2013-11-04 03:15:00,
2013-11-03 22:20:00,27.0,21.9,18.30,SSW,194,0.0,4.0,81,0.00,,,0.00,Wunderground v.1.15,2013-11-04 03:20:00,
2013-11-03 22:25:00,27.1,22.3,18.30,SSW,194,0.0,4.0,82,0.00,,,0.00,Wunderground v.1.15,2013-11-04 03:25:00,
2013-11-03 22:30:00,27.2,22.1,18.30,SSW,194,0.0,4.0,81,0.00,,,0.00,Wunderground v.1.15,2013-11-04 03:30:00,
2013-11-03 22:35:00,27.1,22.0,18.30,SSW,194,0.0,4.0,81,0.00,,,0.00,Wunderground v.1.15,2013-11-04 03:35:00,
2013-11-03 22:40:00,27.1,22.0,18.30,SSW,194,0.0,4.0,81,0.00,,,0.00,Wunderground v.1.15,2013-11-04 03:40:00,
2013-11-03 22:45:00,27.0,21.9,18.30,SSW,194,0.0,4.0,81,0.00,,,0.00,Wunderground v.1.15,2013-11-04 03:45:00,
2013-11-03 22:50:00,27.0,21.9,18.30,SSW,194,0.0,4.0,81,0.00,,,0.00,Wunderground v.1.15,2013-11-04 03:50:00,
2013-11-03 22:55:00,26.7,21.7,18.30,SSW,194,0.0,4.0,81,0.00,,,0.00,Wunderground v.1.15,2013-11-04 03:55:00,
2013-11-03 23:00:00,26.5,21.5,18.30,SSW,195,0.0,3.0,81,0.00,,,0.00,Wunderground v.1.15,2013-11-04 04:00:00,
2013-11-03 23:10:00,26.3,21.6,18.30,SSW,195,0.0,3.0,82,0.00,,,0.00,Wunderground v.1.15,2013-11-04 04:10:00,
2013-11-03 23:15:00,26.2,21.5,18.30,SSW,195,0.0,3.0,82,0.00,,,0.00,Wunderground v.1.15,2013-11-04 04:15:00,
2013-11-03 23:25:00,25.8,21.1,18.30,SSW,195,0.0,3.0,82,0.00,,,0.00,Wunderground v.1.15,2013-11-04 04:25:00,
2013-11-03 23:30:00,25.8,21.3,18.30,SSW,195,0.0,3.0,83,0.00,,,0.00,Wunderground v.1.15,2013-11-04 04:30:00,
2013-11-03 23:35:00,25.7,21.3,18.30,SSW,195,0.0,3.0,83,0.00,,,0.00,Wunderground v.1.15,2013-11-04 04:35:00,
2013-11-03 23:40:00,25.5,21.1,18.30,SSW,195,0.0,3.0,83,0.00,,,0.00,Wunderground v.1.15,2013-11-04 04:40:00,
2013-11-03 23:50:00,25.8,21.6,18.30,SSW,199,1.0,1.0,84,0.00,,,0.00,Wunderground v.1.15,2013-11-04 04:50:00,
2013-11-03 23:55:00,26.3,21.8,18.30,SSW,201,2.0,2.0,83,0.00,,,0.00,Wunderground v.1.15,2013-11-04 04:55:00,